Home   Weather   Silsand   Past weeks
Flag for Norway

Past Weather in Silsand, Norway — Yesterday and Last 2 Weeks

Now
32 °F

Chilly.


Feels Like: 23 °F
Forecast: 57 / 49 °F
Wind: 12 mph from North

Location: Kongsoya

Current Time: Aug 21, 2019 at 1:47:00 pm

Latest Report: Aug 21, 2019 at 1:00 pm


Visibility: N/A

Pressure: 29.64 "Hg

Humidity: 86%

Dew Point: 29 °F

Location of SilsandLocation

Past Weather in Silsand — Graph

°F

Silsand Temperature Yesterday

Maximum temperature yesterday: 32 °F (at 11:00 am)
Minimum temperature yesterday: 31 °F (at 12:00 am)
Average temperature yesterday: 32 °F

High & Low Weather Summary for the Past Weeks

 TemperatureHumidityPressure
High37 °F (Aug 13, 6:00 pm)100% (Aug 6, 10:00 pm)30.09 "Hg (Aug 6, 10:00 pm)
Low29 °F (Aug 17, 2:00 am)69% (Aug 11, 4:00 pm)29.44 "Hg (Aug 20, 11:00 pm)
Average33 °F96%29.79 "Hg
* Reported Aug 6 12:00 pm — Aug 21 12:00 pm, Silsand. Weather by CustomWeather, © 2019

Note: Actual official high and low records may vary slightly from our data, if they occured in-between our weather recording intervals... More about our weather records

Advertising

Silsand Weather History for the Previous 24 Hours

Scroll right to see more
 ConditionsComfort  
Time TempWeatherWind HumidityBarometerVisibility
12:00 pm
Wed, Aug 21
32 °FChilly.13 mph90%29.62 "HgN/A
11:00 am32 °FChilly.14 mph93%29.59 "HgN/A
10:00 am32 °FChilly.N/A96%29.56 "HgN/A
9:00 am32 °FChilly.14 mph100%29.53 "HgN/A
8:00 am32 °FChilly.14 mph100%29.50 "HgN/A
7:00 am32 °FChilly.1 mph100%29.47 "HgN/A
6:00 am32 °FChilly.1 mph100%29.47 "HgN/A
5:00 am31 °FChilly.2 mph100%29.47 "HgN/A
4:00 am31 °FChilly.2 mph100%29.44 "HgN/A
3:00 am31 °FChilly.2 mph100%29.44 "HgN/A
2:00 am31 °FChilly.2 mph100%29.44 "HgN/A
1:00 am31 °FChilly.2 mph100%29.44 "HgN/A
12:00 am31 °FChilly.3 mph100%29.44 "HgN/A
11:00 pm
Tue, Aug 20
31 °FChilly.6 mph100%29.44 "HgN/A
10:00 pm32 °FChilly.8 mph100%29.47 "HgN/A
9:00 pm32 °FChilly.8 mph100%29.47 "HgN/A
8:00 pm32 °FChilly.5 mph100%29.50 "HgN/A
7:00 pm32 °FChilly.7 mph100%29.50 "HgN/A
6:00 pm32 °FChilly.6 mph100%29.50 "HgN/A
5:00 pm32 °FChilly.9 mph100%29.54 "HgN/A
4:00 pm32 °FChilly.13 mph100%29.55 "HgN/A
3:00 pm32 °FChilly.12 mph100%29.57 "HgN/A
2:00 pm32 °FChilly.7 mph100%29.59 "HgN/A
1:00 pm32 °FChilly.9 mph100%29.61 "HgN/A
Weather by CustomWeather, © 2019

See weather overview